AG4OX Weather Reports


Display with metric or nautical units.
time (UTC)temp
F
wind
direction
speed
MPH
gust
MPH
rain 1hr
in
rain 24hr
in
rain mn
in
humidity
%
barometer
mb
20260506224007 82 106 5.0 14.0 0.00 0.00 0.00 52 1013.8
20260506223007 83 85 6.0 12.0 0.00 0.00 0.00 53 1013.8
20260506222006 83 85 7.0 13.0 0.00 0.00 0.00 52 1013.8
20260506220005 84 118 5.0 13.0 0.00 0.00 0.00 53 1013.9
20260506215006 84 89 6.0 13.0 0.00 0.00 0.00 51 1014.0
20260506214006 84 95 9.0 15.0 0.00 0.00 0.00 49 1014.0
20260506213006 85 83 7.0 14.0 0.00 0.00 0.00 51 1013.9
20260506210005 85 87 6.0 13.0 0.00 0.00 0.00 49 1014.0
20260506205006 85 92 7.0 14.0 0.00 0.00 0.00 51 1013.9
20260506204006 86 85 7.0 15.0 0.00 0.00 0.00 48 1013.9
20260506203006 85 89 7.0 15.0 0.00 0.00 0.00 48 1013.8
20260506202006 86 92 5.0 14.0 0.00 0.00 0.00 47 1013.9
20260506201006 86 71 6.0 15.0 0.00 0.00 0.00 48 1013.8
20260506195006 87 111 6.0 15.0 0.00 0.00 0.00 45 1013.9
20260506193005 86 73 3.0 13.0 0.00 0.00 0.00 46 1014.1
20260506192007 86 97 7.0 16.0 0.00 0.00 0.00 46 1014.1
20260506190006 87 76 10.0 17.0 0.00 0.00 0.00 46 1014.3
20260506184007 88 99 6.0 13.0 0.00 0.00 0.00 47 1014.5
20260506183006 87 81 7.0 15.0 0.00 0.00 0.00 46 1014.6
20260506182006 87 86 6.0 14.0 0.00 0.00 0.00 46 1014.6
20260506181006 87 106 5.0 14.0 0.00 0.00 0.00 45 1014.8
20260506180006 87 75 7.0 12.0 0.00 0.00 0.00 46 1014.8
20260506175005 87 97 6.0 12.0 0.00 0.00 0.00 48 1014.9
20260506174007 87 93 5.0 10.0 0.00 0.00 0.00 46 1015.0
20260506173006 87 110 4.0 13.0 0.00 0.00 0.00 46 1015.2
20260506172007 88 99 5.0 12.0 0.00 0.00 0.00 46 1015.1
20260506171007 89 36 3.0 9.0 0.00 0.00 0.00 47 1015.0
20260506170005 89 130 1.0 7.0 0.00 0.00 0.00 44 1015.3
20260506164007 87 207 1.0 6.0 0.00 0.00 0.00 43 1015.4
20260506163007 87 124 2.0 8.0 0.00 0.00 0.00 50 1015.4
20260506162007 87 68 5.0 8.0 0.00 0.00 0.00 47 1015.5
20260506161007 87 99 3.0 12.0 0.00 0.00 0.00 46 1015.5
20260506160005 86 168 2.0 9.0 0.00 0.00 0.00 45 1015.7
20260506155006 86 86 5.0 12.0 0.00 0.00 0.00 49 1015.7
20260506154007 86 183 3.0 7.0 0.00 0.00 0.00 47 1015.8
20260506153007 86 89 6.0 10.0 0.00 0.00 0.00 45 1015.9
20260506150005 84 123 2.0 7.0 0.00 0.00 0.00 59 1015.7
20260506145005 84 120 3.0 7.0 0.00 0.00 0.00 57 1015.7
20260506144005 83 143 2.0 7.0 0.00 0.00 0.00 63 1015.6
20260506141006 82 97 2.0 7.0 0.00 0.00 0.00 72 1015.6
20260506140005 82 92 3.0 6.0 0.00 0.00 0.00 70 1015.8
20260506135006 82 106 2.0 5.0 0.00 0.00 0.00 73 1015.6
20260506134006 80 84 3.0 6.0 0.00 0.00 0.00 75 1015.5
20260506133006 79 96 3.0 10.0 0.00 0.00 0.00 79 1015.5
20260506132006 78 98 3.0 9.0 0.00 0.00 0.00 79 1015.3
20260506131005 77 111 3.0 6.0 0.00 0.00 0.00 81 1015.1
20260506130006 76 130 2.0 6.0 0.00 0.00 0.00 83 1015.1
20260506125006 75 89 1.0 3.0 0.00 0.00 0.00 83 1015.2
20260506124007 73 83 2.0 3.0 0.00 0.00 0.00 81 1015.1
20260506123008 71 80 1.0 3.0 0.00 0.00 0.00 69 1015.1
20260506122006 70 93 1.0 3.0 0.00 0.00 0.00 66 1014.9
20260506121005 68 11 0.0 0.0 0.00 0.00 0.00 66 1015.1
20260506120006 67 11 0.0 0.0 0.00 0.00 0.00 67 1014.8
20260506115006 66 16 0.0 0.0 0.00 0.00 0.00 67 1014.8
20260506114007 65 23 0.0 0.0 0.00 0.00 0.00 68 1014.7
20260506111005 63 25 0.0 0.0 0.00 0.00 0.00 69 1014.8
20260506105005 63 0 0.0 0.0 0.00 0.00 0.00 70 1014.6
20260506104007 63 329 0.0 0.0 0.00 0.00 0.00 69 1014.4
20260506103005 63 82 0.0 0.0 0.00 0.00 0.00 69 1014.2
20260506101006 63 82 0.0 0.0 0.00 0.00 0.00 71 1014.1
20260506100005 63 82 0.0 0.0 0.00 0.00 0.00 70 1014.0
20260506093006 63 82 0.0 0.0 0.00 0.00 0.00 72 1014.0
20260506092006 63 82 0.0 1.0 0.00 0.00 0.00 71 1014.0
20260506090007 63 82 0.0 0.0 0.00 0.00 0.00 73 1013.9
20260506085006 63 82 0.0 0.0 0.00 0.00 0.00 72 1013.7
20260506083005 63 82 0.0 0.0 0.00 0.00 0.00 73 1013.8
20260506082006 63 82 0.0 0.0 0.00 0.00 0.00 73 1013.9
20260506081006 63 82 0.0 0.0 0.00 0.00 0.00 73 1013.8
20260506073006 64 82 0.0 0.0 0.00 0.00 0.00 72 1013.9
20260506072007 64 82 0.0 0.0 0.00 0.00 0.00 74 1014.0
20260506071006 64 82 0.0 0.0 0.00 0.00 0.00 74 1014.1
20260506062005 64 82 0.0 0.0 0.00 0.00 0.00 76 1014.3
20260506061006 64 82 0.0 0.0 0.00 0.00 0.00 76 1014.4
20260506051007 64 82 0.0 0.0 0.00 0.00 0.00 80 1014.7
20260506045006 65 82 0.0 0.0 0.00 0.00 0.00 80 1014.6
20260506043006 65 82 0.0 0.0 0.00 0.00 0.00 82 1014.6
20260506042006 65 82 0.0 0.0 0.00 0.00 0.00 81 1014.7
20260506040009 65 82 0.0 0.0 0.00 0.00 0.00 83 1014.8
20260506035006 66 82 0.0 0.0 0.00 0.00 0.00 83 1014.9
20260506034005 66 82 0.0 0.0 0.00 0.00 0.00 83 1015.0
20260506033006 66 82 0.0 0.0 0.00 0.00 0.00 84 1015.0
20260506032007 66 82 0.0 1.0 0.00 0.00 0.00 83 1015.0
20260506031007 66 82 0.0 1.0 0.00 0.00 0.00 84 1014.9
20260506030006 67 82 0.0 0.0 0.00 0.00 0.00 84 1014.8
20260506025006 67 82 0.0 0.0 0.00 0.00 0.00 84 1014.7
20260506024007 67 82 0.0 0.0 0.00 0.00 0.00 83 1014.7
20260506023007 68 82 0.0 0.0 0.00 0.00 0.00 83 1014.7
20260506022006 68 82 0.0 0.0 0.00 0.00 0.00 81 1014.6
20260506021005 69 82 0.0 0.0 0.00 0.00 0.00 80 1014.8
20260506020005 69 82 0.0 0.0 0.00 0.00 0.00 79 1014.7
20260506015006 69 82 0.0 1.0 0.00 0.00 0.00 79 1014.6
20260506014006 70 82 0.0 1.0 0.00 0.00 0.00 76 1014.4
20260506013006 70 82 1.0 1.0 0.00 0.00 0.00 75 1014.2
20260506012007 71 88 0.0 2.0 0.00 0.00 0.00 75 1013.9
20260506011006 71 88 1.0 2.0 0.00 0.00 0.00 73 1013.7
20260506010006 71 75 1.0 2.0 0.00 0.00 0.00 71 1013.6
20260506005006 72 81 1.0 3.0 0.00 0.00 0.00 70 1013.6
20260506004006 72 73 1.0 2.0 0.00 0.00 0.00 69 1013.5
20260506003006 73 47 1.0 2.0 0.00 0.00 0.00 69 1013.5
20260506002006 73 62 1.0 2.0 0.00 0.00 0.00 68 1013.4
20260506000005 74 67 1.0 3.0 0.00 0.00 0.00 68 1013.4
20260505235007 75 83 2.0 6.0 0.00 0.00 0.00 66 1013.5
20260505234007 75 91 3.0 7.0 0.00 0.00 0.00 66 1013.4
20260505232006 76 72 3.0 10.0 0.00 0.00 0.00 65 1013.5
20260505231007 76 72 5.0 13.0 0.00 0.00 0.00 64 1013.6
20260505230005 77 86 6.0 12.0 0.00 0.00 0.00 63 1013.6
20260505225006 78 78 4.0 13.0 0.00 0.00 0.00 61 1013.7